Weather History for Redmond, OR

Change the Weather History Date:

Monday, October 18, 2010

  Actual Average Record
Temperature  
Mean Temperature 42 °F 47 °F  
Max Temperature 65 °F 63 °F 82 °F (1977)
Min Temperature 19 °F 31 °F 16 °F (1976)
Degree Days  
Heating Degree Days 23 18  
Month to date heating degree days 257 279  
Since 1 July heating degree days 664 678  
Cooling Degree Days 0 0  
Month to date cooling degree days 0 0  
Year to date cooling degree days 161 222  
Moisture  
Dew Point 21 °F    
Average Humidity 50    
Maximum Humidity 84    
Minimum Humidity 16    
Precipitation  
Precipitation 0.00 in 0.02 in 0.22 in (2007)
Month to date precipitation 0.20 0.32  
Year to date precipitation 7.34 6.46  
Sea Level Pressure  
Sea Level Pressure 30.27 in    
Wind  
Wind Speed 4 mph (South)    
Max Wind Speed 13 mph    
Max Gust Speed 16 mph    
Visibility 10 miles    
Events      
T = Trace of Precipitation, MM = Missing Value Source: NWS Daily Summary

Daily Weather History Graph

Daily Weather History Graph

Search for Another Location

Airport:

Trip Planner

Search our weather history database for the weather conditions in past years. The results will help you decide how hot, cold, wet, or windy it might be!

Date:

Astronomy

Oct. 18, 2010 Rise Set
Actual Time 7:23 AM PDT 6:15 PM PDT
Civil Twilight 6:54 AM PDT 6:44 PM PDT
Nautical Twilight 6:20 AM PDT 7:18 PM PDT
Astronomical Twilight 5:46 AM PDT 7:51 PM PDT
Moon 4:09 PM PDT (10/18) 3:08 AM PDT (10/18)
Length of Visible Light 11h 50m
Length of Day
10h 52m
Waxing Gibbous, 84% of the Moon is Illuminated
Oct 18
Waxing Gibbous
Oct 22
Full
Oct 30
Last Quarter
Nov 5
New
Nov 13
First Quarter

Hourly Weather History & Observations

Time (PDT) Temp. Windchill Dew Point Humidity Pressure Visibility Wind Dir Wind Speed Gust Speed Precip Events Conditions
12:56 AM 28.0 °F 21.7 °F 21.0 °F 75% 30.25 in 10.0 mi South 5.8 mph - N/A   Clear
1:56 AM 28.9 °F 23.9 °F 21.0 °F 72% 30.26 in 10.0 mi SE 4.6 mph - N/A   Clear
2:56 AM 28.9 °F 22.8 °F 21.0 °F 72% 30.25 in 10.0 mi South 5.8 mph - N/A   Clear
3:56 AM 26.1 °F - 19.9 °F 78% 30.27 in 10.0 mi Calm Calm - N/A   Clear
4:56 AM 26.1 °F 21.9 °F 19.9 °F 78% 30.28 in 10.0 mi South 3.5 mph - N/A   Clear
5:56 AM 24.1 °F 18.2 °F 19.0 °F 81% 30.29 in 10.0 mi South 4.6 mph - N/A   Clear
6:56 AM 24.1 °F - 19.0 °F 81% 30.30 in 10.0 mi Calm Calm - N/A   Clear
7:56 AM 21.0 °F 16.2 °F 17.1 °F 85% 30.32 in 10.0 mi SE 3.5 mph - N/A   Clear
8:56 AM 37.0 °F 32.4 °F 24.1 °F 59% 30.31 in 10.0 mi SSE 5.8 mph - N/A   Clear
9:56 AM 44.1 °F - 24.1 °F 45% 30.30 in 10.0 mi Calm Calm - N/A   Clear
10:56 AM 48.9 °F - 25.0 °F 39% 30.30 in 10.0 mi Calm Calm - N/A   Clear
11:56 AM 53.1 °F - 24.1 °F 32% 30.28 in 10.0 mi Calm Calm - N/A   Clear
12:56 PM 57.9 °F - 23.0 °F 26% 30.26 in 10.0 mi Calm Calm - N/A   Clear
1:56 PM 60.1 °F - 23.0 °F 24% 30.24 in 10.0 mi Variable 3.5 mph - N/A   Clear
2:56 PM 63.0 °F - 16.0 °F 16% 30.22 in 10.0 mi North 6.9 mph - N/A   Clear
3:56 PM 64.9 °F - 21.0 °F 19% 30.21 in 10.0 mi North 9.2 mph - N/A   Clear
4:56 PM 60.1 °F - 21.9 °F 23% 30.22 in 10.0 mi NW 10.4 mph - N/A   Clear
5:56 PM 55.9 °F - 21.0 °F 26% 30.23 in 10.0 mi NW 6.9 mph - N/A   Clear
6:56 PM 52.0 °F - 21.0 °F 30% 30.25 in 10.0 mi WNW 5.8 mph - N/A   Clear
7:56 PM 44.1 °F 42.5 °F 21.0 °F 40% 30.28 in 10.0 mi South 3.5 mph - N/A   Clear
8:56 PM 39.9 °F 37.8 °F 19.9 °F 45% 30.27 in 10.0 mi SSE 3.5 mph - N/A   Clear
9:56 PM 37.0 °F 33.3 °F 19.0 °F 48% 30.27 in 10.0 mi South 4.6 mph - N/A   Clear
10:56 PM 36.0 °F 32.1 °F 18.0 °F 48% 30.27 in 10.0 mi SSE 4.6 mph - N/A   Clear
11:56 PM 35.1 °F 30.1 °F 18.0 °F 50% 30.27 in 10.0 mi SSE 5.8 mph - N/A   Clear